User: anonymous   Login
Location: Unspecified
(0.0000°N, 0.0000°E)
Time: 09:00:56
(UTC+02:00)
Language:

Cosmos 1295 Rocket - Orbit

View from above orbital plane
View from above orbital plane
View from above satellite
View from above satellite

Ground track
Ground track

The orbit data is extracted from the following two-line orbital elements,

1 12682U 81077B   14296.78796399  .00000121  00000-0  10404-3 0  8021
2 12682 082.9200 019.6530 0034629 175.1744 322.6965 13.78464349669585
Epoch (UTC): 23 October 2014 18:54:40
Eccentricity: 0.0034629
inclination: 82.9200°
perigee height: 944 km
apogee height: 995 km
right ascension of ascending node: 19.6530°
argument of perigee: 175.1744°
revolutions per day: 13.78464349
mean anomaly at epoch: 322.6965°
orbit number at epoch: 66958

The dashed part of the orbit path shows where the satellite is in the earth's shadow,  

DLR